Location: Caltech
(34.1382°N, 118.1253°W)
Time: 13:01:18
(UTC-07:00)

OPAL - Visible Passes

Search period start: 21 August 2014 00:00
Search period end: 31 August 2014 00:00
Orbit: 744 x 796 km, 100.2° (Epoch: 20 August)

Date Brightness Start Highest point End Pass type
(mag) Time Alt. Az. Time Alt. Az. Time Alt. Az.
21 Aug 9.9 03:23:51 10° ESE 03:27:27 20° ENE 03:31:06 10° NNE visible
21 Aug 7.9 05:01:22 10° S 05:06:01 39° W 05:10:44 10° NNW visible
22 Aug 7.4 04:25:47 10° SSE 04:30:46 86° ENE 04:35:51 10° NNW visible
23 Aug 8.9 03:51:09 10° SE 03:55:43 37° ENE 04:00:20 10° N visible
23 Aug 8.7 05:30:56 10° SW 05:34:39 21° W 05:38:25 10° NW visible
24 Aug 10.1 03:17:44 10° ESE 03:20:51 17° ENE 03:24:00 10° NNE visible
24 Aug 7.6 04:54:27 10° S 04:59:16 49° WSW 05:04:11 10° NNW visible
25 Aug 7.7 04:19:07 10° SSE 04:24:04 70° ENE 04:29:08 10° N visible
26 Aug 9.3 03:44:44 10° SE 03:49:04 30° ENE 03:53:27 10° N visible
26 Aug 8.4 05:23:44 10° SSW 05:27:52 26° W 05:32:05 10° NW visible
27 Aug 10.4 03:11:48 10° E 03:14:15 14° ENE 03:16:44 10° NNE visible
27 Aug 7.4 04:47:36 10° S 04:52:32 62° WSW 04:57:35 10° NNW visible
28 Aug 8.1 04:12:30 10° SSE 04:17:23 56° ENE 04:22:23 10° N visible
28 Aug 9.1 05:54:07 10° SW 05:56:35 14° W 05:59:03 10° WNW visible
29 Aug 9.6 03:38:24 10° ESE 03:42:26 25° ENE 03:46:32 10° NNE visible
29 Aug 8.1 05:16:39 10° SSW 05:21:07 32° W 05:25:40 10° NW visible
30 Aug 10.5 03:06:17 10° ENE 03:07:40 11° ENE 03:09:05 10° NE visible
30 Aug 7.4 04:40:48 10° S 04:45:49 78° WSW 04:50:57 10° NNW visible
